Location: Newark
(48.9886°N, 1.2358°E)
Time: 15:16:23
(UTC+00:00)

Transit 4A - Pass Details

Date: 26 November 2019
Orbit: 870 x 975 km, 66.8° (Epoch: 05 December)

Event Time Altitude Azimuth Distance (km) Brightness Sun altitude
Exits shadow 02:57:48 21° 60° (ENE) 1,887 9.9 -42.2°
Drops below altitude 10° 03:00:33 10° 86° (E) 2,532 10.8 -41.8°
Sets 03:03:29 0° 99° (E) 3,460 11.6 -41.3°
